Flag for Dominican Republic Weather past 2 weeks in Santiago de los Caballeros, Dominican Republic

Now
93 °F

Broken clouds.


Feels Like: 99 °F
Forecast: 76 / 93 °F
Wind: 15 mph from Southeast

Location: Santiago

Current Time: Aug 1, 2015 at 2:53:18 PM

Latest Report: Aug 1, 2015 at 2:00 PM


Visibility: N/A

Pressure: 29.95 "Hg

Humidity: 47%

Dew point: 70 °F

Location of Santiago de los CaballerosLocation

Historic Weather in Santiago de los Caballeros — Graph

°F

Santiago de los Caballeros temperature yesterday

Maximum temperature yesterday: 93 °F (at 1:00 PM)
Minimum temperature yesterday: 75 °F (at 4:00 AM)
Average temperature yesterday: 82 °F

Past Weeks' High & Low Weather Summary

 TemperatureHumidityPressure
High95 °F (Jul 25, 3:00 PM)100% (Jul 18, 8:00 AM)30.09 "Hg (Jul 18, 8:00 AM)
Low70 °F (Jul 19, 7:00 AM)36% (Jul 25, 4:00 PM)29.92 "Hg (Jul 21, 4:00 PM)
Average83 °F71%30.02 "Hg
* Reported Jul 17 1:00 PM — Aug 1 1:00 PM, Santiago de los Caballeros, Weather by CustomWeather, © 2015

Note: Actual official high and low records may vary slightly from our data, if they occured in-between our weather recording intervals... More about our weather records

Advertising

Santiago de los Caballeros weather history for previous 24 hours

 ConditionsComfort  
Time TempWeatherWind HumidityBarometerVisibility
1:00 PM
Sat, Aug 1
91 °FScattered clouds.17 mph49%30.01 "HgN/A
12:00 PM91 °FScattered clouds.14 mph52%30.01 "HgN/A
11:00 AM88 °FPartly sunny.16 mph62%30.04 "HgN/A
10:00 AM86 °FPartly sunny.17 mph66%30.04 "HgN/A
9:00 AM82 °FScattered clouds.14 mph79%30.04 "HgN/A
8:00 AM77 °FPartly sunny.8 mph94%30.01 "HgN/A
7:00 AM77 °FScattered clouds.6 mph94%30.01 "HgN/A
6:00 AM77 °FPassing clouds.7 mph94%30.01 "HgN/A
5:00 AM77 °FPassing clouds.6 mph94%29.98 "HgN/A
4:00 AM77 °FPassing clouds.9 mph94%30.01 "HgN/A
3:00 AM79 °FPassing clouds.9 mph89%30.01 "HgN/A
2:00 AM79 °FPassing clouds.7 mph89%30.01 "HgN/A
1:00 AM79 °FPassing clouds.9 mph89%30.04 "HgN/A
12:00 AM79 °FPassing clouds.9 mph89%30.01 "HgN/A
11:00 PM
Fri, Jul 31
79 °FPassing clouds.9 mph89%30.04 "HgN/A
10:00 PM81 °FPassing clouds.9 mph84%30.01 "HgN/A
9:00 PM81 °FPassing clouds.13 mph79%30.01 "HgN/A
8:00 PM81 °FPassing clouds.7 mph74%29.98 "HgN/A
7:00 PM82 °FPartly sunny.10 mph79%29.95 "HgN/A
6:00 PM82 °FScattered clouds.9 mph70%29.98 "HgN/A
5:00 PM82 °FScattered clouds.17 mph58%29.95 "HgN/A
4:00 PM81 °FScattered clouds.21 mph74%29.98 "HgN/A
3:00 PM93 °FScattered clouds.18 mph47%30.04 "HgN/A
2:00 PM93 °FScattered clouds.14 mph47%29.98 "HgN/A
Weather by CustomWeather, © 2015

See weather overviewHow to use our weather pages